Time,TemperatureF,DewpointF,PressureIn,WindDirection,WindDirectionDegrees,WindSpeedMPH,WindSpeedGustMPH,Humidity,HourlyPrecipIn,Conditions,Clouds,dailyrainin,SoftwareType,DateUTC
2013-08-31 00:05:00,69.8,68.0,30.02,ESE,111,0.0,0.0,95,0.00,,,0.00,weatherlink.com 1.10,2013-08-31 04:05:00,
2013-08-31 00:20:00,69.5,68.0,30.02,ESE,111,0.0,0.0,95,0.00,,,0.00,weatherlink.com 1.10,2013-08-31 04:20:00,
2013-08-31 00:35:00,69.4,68.0,30.02,ESE,111,0.0,0.0,96,0.00,,,0.00,weatherlink.com 1.10,2013-08-31 04:35:00,
2013-08-31 00:50:00,69.3,68.0,30.02,ESE,111,0.0,0.0,96,0.00,,,0.00,weatherlink.com 1.10,2013-08-31 04:50:00,
2013-08-31 01:05:00,69.3,68.0,30.02,ESE,111,0.0,0.0,96,0.00,,,0.00,weatherlink.com 1.10,2013-08-31 05:05:00,
2013-08-31 01:20:00,69.3,68.0,30.01,ESE,111,0.0,0.0,96,0.00,,,0.00,weatherlink.com 1.10,2013-08-31 05:20:00,
2013-08-31 01:35:00,69.2,68.0,30.01,ESE,111,0.0,0.0,96,0.00,,,0.00,weatherlink.com 1.10,2013-08-31 05:35:00,
2013-08-31 01:50:00,69.2,68.0,30.01,ESE,111,0.0,0.0,96,0.00,,,0.00,weatherlink.com 1.10,2013-08-31 05:50:00,
2013-08-31 02:05:00,69.2,68.0,30.01,ESE,111,0.0,0.0,96,0.00,,,0.00,weatherlink.com 1.10,2013-08-31 06:05:00,
2013-08-31 02:20:00,69.2,68.0,30.00,ESE,111,0.0,0.0,96,0.00,,,0.00,weatherlink.com 1.10,2013-08-31 06:20:00,
2013-08-31 02:35:00,69.3,68.0,30.00,ESE,111,0.0,0.0,96,0.00,,,0.00,weatherlink.com 1.10,2013-08-31 06:35:00,
2013-08-31 02:50:00,69.3,68.0,30.00,ESE,111,0.0,0.0,96,0.00,,,0.00,weatherlink.com 1.10,2013-08-31 06:50:00,
2013-08-31 03:05:00,69.0,68.0,30.00,ESE,111,0.0,0.0,96,0.00,,,0.00,weatherlink.com 1.10,2013-08-31 07:05:00,
2013-08-31 03:20:00,68.8,68.0,30.00,ESE,111,0.0,0.0,96,0.00,,,0.00,weatherlink.com 1.10,2013-08-31 07:20:00,
2013-08-31 03:36:00,68.8,68.0,30.00,ESE,111,0.0,0.0,97,0.00,,,0.00,weatherlink.com 1.10,2013-08-31 07:36:00,
2013-08-31 03:51:00,68.8,68.0,30.00,ESE,111,0.0,0.0,97,0.00,,,0.00,weatherlink.com 1.10,2013-08-31 07:51:00,
2013-08-31 04:06:00,68.9,68.0,29.99,ESE,111,0.0,0.0,97,0.00,,,0.00,weatherlink.com 1.10,2013-08-31 08:06:00,
2013-08-31 04:21:00,69.0,68.0,29.99,ESE,111,0.0,0.0,97,0.00,,,0.00,weatherlink.com 1.10,2013-08-31 08:21:00,
2013-08-31 04:36:00,68.9,68.0,29.98,ESE,111,0.0,0.0,96,0.00,,,0.00,weatherlink.com 1.10,2013-08-31 08:36:00,
2013-08-31 04:51:00,68.8,68.0,29.98,ESE,111,0.0,0.0,96,0.00,,,0.00,weatherlink.com 1.10,2013-08-31 08:51:00,
2013-08-31 05:06:00,68.7,68.0,29.99,ESE,111,0.0,0.0,96,0.00,,,0.00,weatherlink.com 1.10,2013-08-31 09:06:00,
2013-08-31 05:21:00,68.6,68.0,29.99,ESE,111,0.0,0.0,96,0.00,,,0.00,weatherlink.com 1.10,2013-08-31 09:21:00,
2013-08-31 05:36:00,68.6,68.0,29.99,ESE,111,0.0,0.0,96,0.00,,,0.00,weatherlink.com 1.10,2013-08-31 09:36:00,
2013-08-31 05:51:00,68.6,68.0,29.99,ESE,111,0.0,0.0,96,0.00,,,0.00,weatherlink.com 1.10,2013-08-31 09:51:00,
2013-08-31 06:06:00,68.5,67.0,29.99,ESE,111,0.0,0.0,96,0.00,,,0.00,weatherlink.com 1.10,2013-08-31 10:06:00,
2013-08-31 06:21:00,68.3,67.0,29.99,ESE,111,0.0,0.0,96,0.00,,,0.00,weatherlink.com 1.10,2013-08-31 10:21:00,
2013-08-31 06:36:00,68.1,67.0,29.99,ESE,111,0.0,0.0,96,0.00,,,0.00,weatherlink.com 1.10,2013-08-31 10:36:00,
2013-08-31 06:51:00,68.0,67.0,29.99,ESE,111,0.0,0.0,97,0.00,,,0.00,weatherlink.com 1.10,2013-08-31 10:51:00,
2013-08-31 07:06:00,67.8,67.0,29.99,ESE,111,0.0,0.0,97,0.00,,,0.00,weatherlink.com 1.10,2013-08-31 11:06:00,
2013-08-31 07:21:00,67.6,67.0,30.00,ESE,111,0.0,0.0,97,0.00,,,0.00,weatherlink.com 1.10,2013-08-31 11:21:00,
2013-08-31 07:36:00,67.7,67.0,30.00,ESE,111,0.0,0.0,97,0.00,,,0.00,weatherlink.com 1.10,2013-08-31 11:36:00,
2013-08-31 07:51:00,67.7,67.0,30.00,ESE,111,0.0,0.0,98,0.00,,,0.00,weatherlink.com 1.10,2013-08-31 11:51:00,
2013-08-31 08:06:00,67.9,67.0,30.01,ESE,111,0.0,0.0,98,0.00,,,0.00,weatherlink.com 1.10,2013-08-31 12:06:00,
2013-08-31 08:21:00,68.1,68.0,30.01,ESE,111,0.0,0.0,98,0.00,,,0.00,weatherlink.com 1.10,2013-08-31 12:21:00,
2013-08-31 08:36:00,68.3,68.0,30.01,ESE,111,0.0,0.0,97,0.00,,,0.00,weatherlink.com 1.10,2013-08-31 12:36:00,
2013-08-31 08:51:00,68.6,68.0,30.01,ESE,111,0.0,0.0,96,0.00,,,0.00,weatherlink.com 1.10,2013-08-31 12:51:00,
2013-08-31 09:06:00,69.2,68.0,30.02,ESE,111,0.0,0.0,95,0.00,,,0.00,weatherlink.com 1.10,2013-08-31 13:06:00,
2013-08-31 09:21:00,70.1,68.0,30.02,South,188,0.0,0.0,94,0.00,,,0.00,weatherlink.com 1.10,2013-08-31 13:21:00,
2013-08-31 09:36:00,71.2,68.0,30.01,SW,217,0.0,0.0,90,0.00,,,0.00,weatherlink.com 1.10,2013-08-31 13:36:00,
2013-08-31 09:51:00,72.1,69.0,30.02,SW,217,0.0,0.0,89,0.00,,,0.00,weatherlink.com 1.10,2013-08-31 13:51:00,
2013-08-31 10:06:00,72.9,70.0,30.02,West,271,0.0,0.0,89,0.00,,,0.00,weatherlink.com 1.10,2013-08-31 14:06:00,
2013-08-31 10:21:00,73.7,70.0,30.01,West,271,0.0,0.0,87,0.00,,,0.00,weatherlink.com 1.10,2013-08-31 14:21:00,
2013-08-31 10:36:00,75.1,71.0,30.01,West,271,0.0,0.0,87,0.00,,,0.00,weatherlink.com 1.10,2013-08-31 14:36:00,
2013-08-31 10:51:00,76.1,70.0,30.01,West,271,0.0,0.0,81,0.00,,,0.00,weatherlink.com 1.10,2013-08-31 14:51:00,
2013-08-31 11:06:00,76.6,72.0,30.01,West,271,0.0,0.0,84,0.00,,,0.00,weatherlink.com 1.10,2013-08-31 15:06:00,
2013-08-31 11:21:00,77.7,71.0,30.01,SW,233,0.0,0.0,80,0.00,,,0.00,weatherlink.com 1.10,2013-08-31 15:21:00,
2013-08-31 11:36:00,78.8,71.0,30.01,ESE,118,0.0,0.0,77,0.00,,,0.00,weatherlink.com 1.10,2013-08-31 15:36:00,
2013-08-31 11:51:00,79.1,71.0,30.01,West,273,1.0,3.0,76,0.00,,,0.00,weatherlink.com 1.10,2013-08-31 15:51:00,
2013-08-31 12:06:00,77.8,70.0,30.01,WSW,242,0.0,5.0,78,0.00,,,0.00,weatherlink.com 1.10,2013-08-31 16:06:00,
2013-08-31 12:21:00,77.8,70.0,30.00,WSW,242,0.0,0.0,78,0.00,,,0.00,weatherlink.com 1.10,2013-08-31 16:21:00,
2013-08-31 12:36:00,79.0,72.0,29.99,WSW,242,0.0,0.0,80,0.00,,,0.00,weatherlink.com 1.10,2013-08-31 16:36:00,
2013-08-31 12:51:00,79.5,72.0,29.99,WSW,248,0.0,0.0,77,0.00,,,0.00,weatherlink.com 1.10,2013-08-31 16:51:00,
2013-08-31 13:06:00,79.7,72.0,29.98,SSW,196,0.0,0.0,76,0.00,,,0.00,weatherlink.com 1.10,2013-08-31 17:06:00,
2013-08-31 13:21:00,79.8,71.0,29.98,SSW,196,0.0,0.0,74,0.00,,,0.00,weatherlink.com 1.10,2013-08-31 17:21:00,
2013-08-31 13:36:00,80.3,71.0,29.97,SSW,195,0.0,0.0,72,0.00,,,0.00,weatherlink.com 1.10,2013-08-31 17:36:00,
2013-08-31 13:51:00,79.2,69.0,29.96,WSW,252,2.0,5.0,72,0.00,,,0.00,weatherlink.com 1.10,2013-08-31 17:51:00,
2013-08-31 14:07:00,79.7,71.0,29.95,WSW,257,0.0,4.0,74,0.00,,,0.00,weatherlink.com 1.10,2013-08-31 18:07:00,
2013-08-31 14:22:00,80.2,71.0,29.96,West,273,0.0,6.0,73,0.00,,,0.00,weatherlink.com 1.10,2013-08-31 18:22:00,
2013-08-31 14:37:00,79.4,71.0,29.95,WSW,254,0.0,5.0,75,0.00,,,0.00,weatherlink.com 1.10,2013-08-31 18:37:00,
2013-08-31 14:52:00,79.1,70.0,29.95,WSW,255,0.0,4.0,73,0.00,,,0.00,weatherlink.com 1.10,2013-08-31 18:52:00,
2013-08-31 15:07:00,78.5,70.0,29.95,West,260,0.0,5.0,75,0.00,,,0.00,weatherlink.com 1.10,2013-08-31 19:07:00,
2013-08-31 15:22:00,78.4,71.0,29.93,West,260,0.0,0.0,77,0.00,,,0.00,weatherlink.com 1.10,2013-08-31 19:22:00,
2013-08-31 15:37:00,78.0,72.0,29.96,West,260,0.0,0.0,81,0.00,,,0.00,weatherlink.com 1.10,2013-08-31 19:37:00,
2013-08-31 15:52:00,76.0,69.0,29.95,West,269,0.0,0.0,80,0.00,,,0.00,weatherlink.com 1.10,2013-08-31 19:52:00,
2013-08-31 16:07:00,74.3,68.0,29.95,West,269,0.0,0.0,81,0.00,,,0.00,weatherlink.com 1.10,2013-08-31 20:07:00,
2013-08-31 16:22:00,73.4,68.0,29.95,West,269,0.0,0.0,84,0.00,,,0.00,weatherlink.com 1.10,2013-08-31 20:22:00,
2013-08-31 16:37:00,72.7,68.0,29.96,West,269,0.0,0.0,85,0.00,,,0.00,weatherlink.com 1.10,2013-08-31 20:37:00,
2013-08-31 16:52:00,72.6,68.0,29.95,West,269,0.0,0.0,85,0.00,,,0.00,weatherlink.com 1.10,2013-08-31 20:52:00,
2013-08-31 17:07:00,73.3,68.0,29.95,West,269,0.0,0.0,84,0.00,,,0.00,weatherlink.com 1.10,2013-08-31 21:07:00,
2013-08-31 17:22:00,74.0,69.0,29.94,West,269,0.0,0.0,83,0.00,,,0.00,weatherlink.com 1.10,2013-08-31 21:22:00,
2013-08-31 17:37:00,75.2,70.0,29.94,West,269,0.0,0.0,83,0.00,,,0.00,weatherlink.com 1.10,2013-08-31 21:37:00,
2013-08-31 17:52:00,75.4,70.0,29.94,West,269,0.0,0.0,84,0.00,,,0.00,weatherlink.com 1.10,2013-08-31 21:52:00,
2013-08-31 18:07:00,75.9,70.0,29.94,West,269,0.0,0.0,82,0.00,,,0.00,weatherlink.com 1.10,2013-08-31 22:07:00,
2013-08-31 18:22:00,76.2,70.0,29.94,West,269,0.0,0.0,82,0.00,,,0.00,weatherlink.com 1.10,2013-08-31 22:22:00,
2013-08-31 18:37:00,76.3,70.0,29.94,West,269,0.0,0.0,82,0.00,,,0.00,weatherlink.com 1.10,2013-08-31 22:37:00,
2013-08-31 18:52:00,76.4,71.0,29.94,West,269,0.0,0.0,82,0.00,,,0.00,weatherlink.com 1.10,2013-08-31 22:52:00,
2013-08-31 19:07:00,76.1,69.0,29.94,West,269,0.0,0.0,79,0.00,,,0.00,weatherlink.com 1.10,2013-08-31 23:07:00,
2013-08-31 19:22:00,75.5,69.0,29.95,West,269,0.0,0.0,80,0.00,,,0.00,weatherlink.com 1.10,2013-08-31 23:22:00,
2013-08-31 19:37:00,74.8,69.0,29.94,West,269,0.0,0.0,81,0.00,,,0.00,weatherlink.com 1.10,2013-08-31 23:37:00,
2013-08-31 19:52:00,74.1,68.0,29.95,West,269,0.0,0.0,82,0.00,,,0.00,weatherlink.com 1.10,2013-08-31 23:52:00,
2013-08-31 20:07:00,73.4,68.0,29.96,West,269,0.0,0.0,84,0.00,,,0.00,weatherlink.com 1.10,2013-09-01 00:07:00,
2013-08-31 20:22:00,72.9,68.0,29.96,West,269,0.0,0.0,85,0.00,,,0.00,weatherlink.com 1.10,2013-09-01 00:22:00,
2013-08-31 20:37:00,72.6,69.0,29.97,West,269,0.0,0.0,88,0.00,,,0.00,weatherlink.com 1.10,2013-09-01 00:37:00,
2013-08-31 20:52:00,72.1,69.0,29.97,West,269,0.0,0.0,89,0.00,,,0.00,weatherlink.com 1.10,2013-09-01 00:52:00,
2013-08-31 21:07:00,71.6,69.0,29.97,West,269,0.0,0.0,90,0.00,,,0.00,weatherlink.com 1.10,2013-09-01 01:07:00,
2013-08-31 21:22:00,71.0,68.0,29.97,West,269,0.0,0.0,90,0.00,,,0.00,weatherlink.com 1.10,2013-09-01 01:22:00,
2013-08-31 21:37:00,70.4,68.0,29.97,West,269,0.0,0.0,92,0.00,,,0.00,weatherlink.com 1.10,2013-09-01 01:37:00,
2013-08-31 21:52:00,69.9,68.0,29.97,West,269,0.0,0.0,93,0.00,,,0.00,weatherlink.com 1.10,2013-09-01 01:52:00,
2013-08-31 22:07:00,69.4,68.0,29.97,West,269,0.0,0.0,94,0.00,,,0.00,weatherlink.com 1.10,2013-09-01 02:07:00,
2013-08-31 22:22:00,69.0,67.0,29.96,West,269,0.0,0.0,94,0.00,,,0.00,weatherlink.com 1.10,2013-09-01 02:22:00,
2013-08-31 22:37:00,68.8,67.0,29.96,West,269,0.0,0.0,95,0.00,,,0.00,weatherlink.com 1.10,2013-09-01 02:37:00,
2013-08-31 22:52:00,68.5,67.0,29.97,West,269,0.0,0.0,95,0.00,,,0.00,weatherlink.com 1.10,2013-09-01 02:52:00,
2013-08-31 23:07:00,68.3,67.0,29.97,West,269,0.0,0.0,96,0.00,,,0.00,weatherlink.com 1.10,2013-09-01 03:07:00,
2013-08-31 23:22:00,68.0,67.0,29.96,West,269,0.0,0.0,95,0.00,,,0.00,weatherlink.com 1.10,2013-09-01 03:22:00,
2013-08-31 23:37:00,67.6,67.0,29.97,West,269,0.0,0.0,96,0.00,,,0.00,weatherlink.com 1.10,2013-09-01 03:37:00,
2013-08-31 23:52:00,67.3,66.0,29.98,West,269,0.0,0.0,96,0.00,,,0.00,weatherlink.com 1.10,2013-09-01 03:52:00,